�N����,����,�~����,�C��,���x,�C��,����,���ϕ���,�ő�u�ԕ���,�ő厞����,���˗�,�I�_���x,�n�����x,�ő啗���N��,DTYPE
"21/06/14","00:10",0.0,21.0,91.2,1004.8,301.3,1.2,1.7,303.9,0.00,19.5,130.0,"00:04:00",1
"21/06/14","00:20",0.0,21.0,91.5,1004.5,302.6,1.2,1.9,314.2,0.00,19.6,130.0,"00:10:56",1
"21/06/14","00:30",0.0,21.0,91.7,1004.3,299.8,1.5,2.2,318.4,0.00,19.6,130.0,"00:25:44",1
"21/06/14","00:40",0.0,21.0,91.9,1004.5,299.0,1.5,2.1,315.1,0.00,19.7,130.0,"00:30:48",1
"21/06/14","00:50",0.0,20.9,92.1,1004.8,292.2,1.3,2.2,305.5,0.00,19.6,130.0,"00:46:08",1
"21/06/14","01:00",0.0,20.8,92.3,1004.3,279.3,1.1,2.4,324.7,0.00,19.5,130.0,"00:59:52",1
"21/06/14","01:10",0.2,20.9,92.4,1004.5,333.1,2.7,5.8,336.1,0.00,19.7,130.0,"01:02:16",1
"21/06/14","01:20",0.2,20.8,92.6,1004.5,330.4,1.3,2.8,338.1,0.00,19.6,130.0,"01:18:32",1
"21/06/14","01:30",0.2,20.6,92.7,1004.5,318.5,1.5,2.4,317.5,0.00,19.4,130.0,"01:25:36",1
"21/06/14","01:40",0.0,20.5,92.8,1004.3,266.6,0.7,1.2,291.1,0.00,19.3,130.0,"01:30:24",1
"21/06/14","01:50",0.4,20.6,93.0,1004.3,189.1,0.3,0.8,260.9,0.00,19.5,130.0,"01:40:16",1
"21/06/14","02:00",0.4,20.5,93.0,1004.3,175.9,0.2,1.1,334.1,0.00,19.4,130.0,"01:59:28",1
"21/06/14","02:10",0.8,20.4,93.1,1003.8,296.4,0.6,1.1,312.3,0.00,19.3,130.0,"02:04:56",1
"21/06/14","02:20",1.2,20.5,93.3,1003.4,62.9,0.8,1.7,103.6,0.00,19.4,130.0,"02:18:10",1
"21/06/14","02:30",0.6,20.4,93.4,1003.1,273.3,1.0,2.4,313.9,0.00,19.3,130.0,"02:28:24",1
"21/06/14","02:40",0.4,20.5,93.5,1003.4,320.5,1.5,2.5,345.2,0.00,19.5,130.0,"02:34:56",1
"21/06/14","02:50",0.2,20.3,93.6,1003.6,278.8,1.1,2.2,244.3,0.00,19.3,130.0,"02:44:00",1
"21/06/14","03:00",0.2,20.4,93.8,1004.1,328.2,1.1,1.4,344.4,0.00,19.4,130.0,"02:50:08",1
"21/06/14","03:10",0.0,20.4,93.9,1003.6,337.6,1.0,2.2,340.6,0.00,19.4,130.0,"03:06:56",1
"21/06/14","03:20",0.0,20.2,94.0,1004.1,346.4,1.0,1.6,309.7,0.00,19.2,130.0,"03:18:48",1
"21/06/14","03:30",0.0,20.2,94.2,1004.1,316.0,1.1,1.6,337.0,0.00,19.3,130.0,"03:22:56",1
"21/06/14","03:40",0.0,20.2,94.2,1003.6,6.0,0.5,1.3,16.5,0.00,19.3,130.0,"03:36:32",1
"21/06/14","03:50",0.0,20.2,94.3,1003.6,271.1,0.8,1.3,268.7,0.00,19.3,130.0,"03:44:00",1
"21/06/14","04:00",0.0,20.2,94.4,1003.6,275.7,0.6,1.0,246.5,0.00,19.3,130.0,"03:56:16",1
"21/06/14","04:10",0.0,20.3,94.5,1004.1,339.7,0.8,1.4,345.6,0.00,19.4,130.0,"04:06:16",1
"21/06/14","04:20",0.0,20.2,94.6,1003.8,359.9,1.0,2.1,345.0,0.00,19.3,130.0,"04:16:56",1
"21/06/14","04:30",0.0,20.2,94.7,1004.1,275.2,1.1,1.7,303.6,0.00,19.4,130.0,"04:20:56",1
"21/06/14","04:40",0.0,20.2,94.7,1004.1,298.0,0.8,2.0,329.6,0.00,19.4,130.0,"04:39:52",1
"21/06/14","04:50",0.0,20.2,94.8,1004.1,330.9,1.5,2.6,334.8,0.00,19.4,130.0,"04:40:02",1
"21/06/14","05:00",0.0,20.2,94.9,1003.8,352.4,0.7,2.1,349.0,0.00,19.4,130.0,"04:59:36",1
"21/06/14","05:10",0.0,20.2,95.0,1004.3,36.2,0.3,1.7,14.7,0.00,19.4,130.0,"05:00:48",1
"21/06/14","05:20",0.0,20.2,95.0,1004.1,4.9,0.5,1.2,332.3,0.00,19.4,130.0,"05:10:02",1
"21/06/14","05:30",0.0,20.2,95.0,1003.8,329.7,0.8,1.9,339.8,0.00,19.4,130.0,"05:20:08",1
"21/06/14","05:40",0.0,20.1,95.1,1004.3,309.6,1.0,1.6,309.0,0.00,19.3,130.0,"05:30:48",1
"21/06/14","05:50",0.0,20.1,95.2,1004.3,326.0,0.5,1.6,328.2,0.00,19.3,130.0,"05:41:20",1
"21/06/14","06:00",0.0,20.1,95.2,1004.3,335.9,0.3,1.1,346.8,0.00,19.3,130.0,"05:53:04",1
"21/06/14","06:10",0.0,20.0,95.3,1004.1,315.2,1.0,1.9,341.3,0.00,19.3,130.0,"06:09:04",1
"21/06/14","06:20",0.0,19.9,95.4,1004.3,303.7,0.8,1.6,318.0,0.00,19.2,130.0,"06:17:20",1
"21/06/14","06:30",0.0,19.8,95.5,1004.3,303.6,1.1,2.1,320.7,0.00,19.1,130.0,"06:23:20",1
"21/06/14","06:40",0.0,19.9,95.6,1004.1,314.4,1.2,2.4,324.8,0.02,19.2,130.0,"06:37:20",1
"21/06/14","06:50",0.0,20.6,95.7,1004.3,314.7,1.1,2.6,339.8,0.08,19.9,130.0,"06:44:08",1
"21/06/14","07:00",0.0,21.5,95.5,1003.8,354.7,0.7,1.6,350.8,0.10,20.8,130.0,"06:58:48",1
"21/06/14","07:10",0.0,22.2,95.4,1003.4,59.4,0.3,1.0,350.6,0.13,21.5,130.0,"07:00:48",1
"21/06/14","07:20",0.0,22.7,95.4,1003.6,10.1,0.6,1.9,339.5,0.15,22.0,130.0,"07:18:32",1
"21/06/14","07:30",0.0,23.1,94.9,1003.6,138.5,0.5,1.9,326.4,0.17,22.3,130.0,"07:29:44",1
"21/06/14","07:40",0.0,23.6,94.5,1003.4,82.7,0.3,1.8,334.4,0.19,22.7,130.0,"07:30:32",1
"21/06/14","07:50",0.0,24.6,94.3,1003.1,16.1,0.2,0.9,338.9,0.21,23.7,130.0,"07:49:04",1
"21/06/14","08:00",0.0,23.4,93.7,1003.1,312.3,0.6,1.9,351.1,0.24,22.4,130.0,"07:52:08",1
"21/06/14","08:10",0.0,23.9,92.7,1002.9,93.7,0.3,1.2,93.5,0.26,22.7,130.0,"08:09:12",1
"21/06/14","08:20",0.0,23.8,91.3,1002.9,52.3,0.6,1.9,30.8,0.29,22.3,130.0,"08:17:28",1
"21/06/14","08:30",0.0,24.7,90.0,1002.4,55.8,0.5,1.4,70.2,0.33,23.0,130.0,"08:27:36",1
"21/06/14","08:40",0.0,25.1,86.0,1001.9,55.6,0.7,1.6,19.8,0.36,22.6,130.0,"08:34:56",1
"21/06/14","08:50",0.0,25.8,81.3,1002.4,100.1,0.7,1.8,70.3,0.39,22.4,130.0,"08:42:48",1
"21/06/14","09:00",0.0,26.6,76.0,1002.2,94.8,1.0,2.1,108.8,0.44,22.1,130.0,"08:53:28",1
"21/06/14","09:10",0.0,27.2,71.3,1002.6,96.8,0.8,2.6,356.8,0.44,21.6,130.0,"09:06:40",1
"21/06/14","09:20",0.0,26.6,69.6,1002.4,8.2,0.6,1.8,8.3,0.20,20.6,130.0,"09:15:20",1
"21/06/14","09:30",0.0,26.0,71.9,1001.7,308.3,0.8,1.9,252.7,0.15,20.6,130.0,"09:24:24",1
"21/06/14","09:40",0.0,25.3,73.7,1001.2,222.4,1.2,2.7,202.8,0.22,20.3,130.0,"09:38:40",1
"21/06/14","09:50",0.0,25.4,74.6,1001.2,199.2,1.0,2.4,206.8,0.19,20.6,130.0,"09:46:24",1
"21/06/14","10:00",0.0,25.5,74.8,1001.2,265.3,0.6,1.9,258.8,0.18,20.7,130.0,"09:51:36",1
"21/06/14","10:10",0.0,25.5,73.7,1001.2,142.7,0.8,1.7,165.5,0.18,20.5,130.0,"10:05:12",1
"21/06/14","10:20",0.0,26.4,72.6,1001.5,51.5,0.5,1.4,6.0,0.30,21.1,130.0,"10:15:04",1
"21/06/14","10:30",0.0,26.7,70.1,1001.7,122.0,0.8,2.4,117.9,0.26,20.8,130.0,"10:27:20",1
"21/06/14","10:40",0.0,26.8,70.8,1001.9,209.6,0.8,2.4,172.9,0.30,21.1,130.0,"10:39:52",1
"21/06/14","10:50",0.0,27.3,68.3,1002.4,142.6,1.1,2.8,116.2,0.42,21.0,130.0,"10:40:24",1
"21/06/14","11:00",0.0,27.9,67.5,1002.4,145.0,0.8,4.1,120.3,0.48,21.4,130.0,"10:55:52",1
"21/06/14","11:10",0.0,28.4,65.9,1002.9,124.2,1.1,3.2,135.4,0.53,21.5,130.0,"11:07:28",1
"21/06/14","11:20",0.0,28.4,65.3,1002.6,153.2,1.2,2.6,221.6,0.52,21.3,130.0,"11:12:08",1
"21/06/14","11:30",0.0,28.5,64.8,1002.6,196.2,1.0,2.6,226.1,0.39,21.3,130.0,"11:25:20",1
"21/06/14","11:40",0.0,28.4,64.0,1002.6,142.1,1.1,2.7,131.1,0.35,21.0,130.0,"11:39:28",1
"21/06/14","11:50",0.0,28.5,64.2,1002.4,61.9,0.8,2.2,29.5,0.30,21.1,130.0,"11:46:40",1
"21/06/14","12:00",0.0,28.7,63.5,1002.2,129.3,1.1,2.1,128.8,0.43,21.1,130.0,"11:54:00",1
"21/06/14","12:10",0.0,27.6,63.9,1002.2,163.7,1.1,2.4,143.2,0.16,20.2,130.0,"12:06:28",1
"21/06/14","12:20",0.0,27.3,65.2,1001.5,109.4,1.0,2.1,119.0,0.14,20.2,130.0,"12:19:36",1
"21/06/14","12:30",0.0,27.7,65.6,1001.5,165.0,1.2,2.5,116.3,0.25,20.7,130.0,"12:29:52",1
"21/06/14","12:40",0.0,27.9,65.7,1001.2,165.5,1.5,3.3,225.7,0.25,20.9,130.0,"12:34:00",1
"21/06/14","12:50",0.0,28.8,64.0,1001.2,167.9,1.0,2.5,201.4,0.46,21.4,130.0,"12:49:52",1
"21/06/14","13:00",0.0,28.9,61.5,1001.0,173.0,1.7,3.7,162.7,0.47,20.8,130.0,"12:58:40",1
"21/06/14","13:10",0.0,28.9,59.6,1001.5,179.2,1.1,2.9,199.3,0.35,20.3,130.0,"13:03:28",1
"21/06/14","13:20",0.0,28.1,62.8,1001.2,139.4,1.2,2.6,179.7,0.21,20.4,130.0,"13:11:12",1
"21/06/14","13:30",0.0,28.5,64.9,1000.3,126.7,1.1,3.3,115.4,0.34,21.3,130.0,"13:26:40",1
"21/06/14","13:40",0.0,29.4,63.7,1000.5,78.0,1.1,2.4,48.0,0.59,21.8,130.0,"13:33:20",1
"21/06/14","13:50",0.0,29.7,61.6,1001.2,90.8,1.1,2.7,113.6,0.51,21.6,130.0,"13:44:24",1
"21/06/14","14:00",0.0,29.0,61.5,1001.0,37.5,1.0,2.5,30.8,0.31,20.9,130.0,"13:52:00",1
"21/06/14","14:10",0.0,28.3,63.5,1000.8,59.3,0.7,2.6,25.1,0.20,20.8,130.0,"14:04:00",1
"21/06/14","14:20",0.0,28.5,62.8,1000.3,19.8,0.7,1.7,57.0,0.24,20.8,130.0,"14:16:24",1
"21/06/14","14:30",0.0,28.6,63.5,1000.3,0.0,1.0,2.6,20.1,0.22,21.0,130.0,"14:23:36",1
"21/06/14","14:40",0.0,28.1,66.2,999.8,344.4,1.6,3.1,348.5,0.18,21.2,130.0,"14:37:04",1
"21/06/14","14:50",0.0,28.1,67.5,999.8,342.0,1.7,3.4,345.5,0.26,21.6,130.0,"14:40:56",1
"21/06/14","15:00",0.0,27.8,67.3,999.6,343.5,2.0,3.9,340.4,0.25,21.2,130.0,"14:58:48",1
"21/06/14","15:10",0.0,28.2,66.0,999.3,3.9,1.8,4.0,331.5,0.34,21.3,130.0,"15:00:08",1
"21/06/14","15:20",0.0,28.5,64.9,999.3,4.4,1.3,2.8,347.9,0.25,21.3,130.0,"15:10:48",1
"21/06/14","15:30",0.0,28.4,62.3,999.6,338.6,1.6,4.0,346.9,0.28,20.5,130.0,"15:28:24",1
"21/06/14","15:40",0.0,28.9,64.2,999.8,333.6,1.7,3.9,349.7,0.33,21.5,130.0,"15:32:16",1
"21/06/14","15:50",0.0,28.7,64.0,999.8,319.6,1.6,4.3,353.6,0.23,21.3,130.0,"15:43:44",1
"21/06/14","16:00",0.0,28.0,65.9,998.9,329.9,1.6,3.4,347.8,0.11,21.1,130.0,"15:54:24",1
"21/06/14","16:10",0.0,27.8,69.0,998.6,317.8,1.2,3.2,315.0,0.10,21.6,130.0,"16:00:02",1
"21/06/14","16:20",0.0,27.0,73.0,998.2,339.6,1.6,3.1,345.7,0.12,21.8,130.0,"16:17:20",1
"21/06/14","16:30",0.2,27.1,74.8,998.2,350.8,1.7,4.5,339.9,0.24,22.3,130.0,"16:25:44",1
"21/06/14","16:40",0.0,26.8,75.1,998.6,327.8,2.0,3.2,345.7,0.11,22.1,130.0,"16:30:40",1
"21/06/14","16:50",0.0,26.7,76.5,998.4,301.9,1.6,3.4,308.1,0.13,22.3,130.0,"16:40:48",1
"21/06/14","17:00",0.0,27.2,77.1,998.2,336.7,1.8,4.3,339.6,0.12,22.9,130.0,"16:53:20",1
"21/06/14","17:10",0.0,27.7,76.1,998.2,319.8,1.6,2.8,346.3,0.09,23.1,130.0,"17:02:16",1
"21/06/14","17:20",0.0,27.8,75.1,998.6,316.1,1.3,3.1,327.3,0.10,23.0,130.0,"17:18:32",1
"21/06/14","17:30",0.0,27.7,73.7,998.6,329.4,1.7,3.1,336.3,0.07,22.6,130.0,"17:22:32",1
"21/06/14","17:40",0.0,28.3,72.5,998.9,304.8,1.1,2.6,341.4,0.05,22.9,130.0,"17:30:56",1
"21/06/14","17:50",0.0,28.4,71.1,998.9,307.2,1.0,2.1,223.7,0.03,22.7,130.0,"17:45:52",1
"21/06/14","18:00",0.0,28.2,70.2,999.1,276.8,1.0,2.1,331.6,0.03,22.3,130.0,"17:55:20",1
"21/06/14","18:10",0.0,27.9,70.2,998.9,281.1,0.8,2.1,345.3,0.03,22.0,130.0,"18:07:12",1
"21/06/14","18:20",0.0,27.9,71.3,998.4,292.1,1.1,2.5,334.9,0.02,22.3,130.0,"18:19:44",1
"21/06/14","18:30",0.0,27.4,73.5,998.6,343.8,1.7,3.3,334.5,0.02,22.3,130.0,"18:28:56",1
"21/06/14","18:40",0.0,26.9,75.0,997.9,314.8,1.5,2.8,346.3,0.02,22.1,130.0,"18:37:36",1
"21/06/14","18:50",0.0,26.4,76.6,998.4,318.7,1.3,2.0,342.2,0.00,22.0,130.0,"18:44:16",1
"21/06/14","19:00",0.0,25.8,78.1,998.6,318.9,1.5,2.6,335.9,0.00,21.7,130.0,"18:50:16",1
"21/06/14","19:10",0.0,25.6,79.2,999.3,339.8,1.6,2.7,335.3,0.00,21.8,130.0,"19:00:02",1
"21/06/14","19:20",0.0,25.4,80.1,999.6,337.2,1.8,3.2,341.7,0.00,21.8,130.0,"19:15:04",1
"21/06/14","19:30",0.0,25.1,80.9,999.3,339.4,1.5,2.8,344.8,0.00,21.6,130.0,"19:21:28",1
"21/06/14","19:40",0.0,24.9,82.0,999.6,341.2,1.3,2.5,342.1,0.00,21.7,130.0,"19:33:52",1
"21/06/14","19:50",0.0,24.6,82.8,999.8,334.2,1.2,2.2,342.6,0.00,21.5,130.0,"19:40:32",1
"21/06/14","20:00",0.0,24.5,83.4,999.8,335.1,1.2,2.5,343.6,0.00,21.5,130.0,"19:50:24",1
"21/06/14","20:10",0.0,24.4,84.0,1000.0,334.3,1.1,1.8,302.5,0.00,21.6,130.0,"20:08:32",1
"21/06/14","20:20",0.0,24.2,84.8,1000.3,340.3,1.1,2.4,328.6,0.00,21.5,130.0,"20:11:04",1
"21/06/14","20:30",0.0,24.2,85.3,1000.8,352.1,1.1,1.9,343.5,0.00,21.6,130.0,"20:20:32",1
"21/06/14","20:40",0.0,23.9,85.6,1000.5,324.6,1.6,2.6,330.9,0.00,21.4,130.0,"20:38:00",1
"21/06/14","20:50",0.0,23.8,85.9,1000.5,283.8,0.7,1.3,279.7,0.00,21.3,130.0,"20:46:16",1
"21/06/14","21:00",0.0,23.6,86.1,1001.2,300.8,0.5,1.1,348.4,0.00,21.2,130.0,"20:50:08",1
"21/06/14","21:10",0.0,23.6,86.5,1001.7,307.6,1.2,1.9,338.5,0.00,21.3,130.0,"21:08:08",1
"21/06/14","21:20",0.0,23.4,86.9,1001.7,320.9,1.5,2.5,322.7,0.00,21.1,130.0,"21:19:20",1
"21/06/14","21:30",0.0,23.3,87.1,1001.9,333.6,1.6,2.6,340.3,0.00,21.1,130.0,"21:23:12",1
"21/06/14","21:40",0.0,23.3,87.3,1001.9,333.5,1.2,1.9,342.4,0.00,21.1,130.0,"21:33:36",1
"21/06/14","21:50",0.0,23.0,87.4,1001.9,327.2,1.1,1.7,333.1,0.00,20.8,130.0,"21:46:32",1
"21/06/14","22:00",0.0,23.0,87.5,1001.9,321.9,1.1,1.6,327.4,0.00,20.9,130.0,"21:54:08",1
"21/06/14","22:10",0.0,22.9,87.6,1001.7,306.2,1.0,1.4,321.9,0.00,20.8,130.0,"22:07:44",1
"21/06/14","22:20",0.0,22.8,87.8,1001.5,325.7,1.2,1.8,337.7,0.00,20.7,130.0,"22:13:28",1
"21/06/14","22:30",0.0,22.6,87.9,1001.9,313.0,1.5,2.2,305.1,0.00,20.5,130.0,"22:23:04",1
"21/06/14","22:40",0.0,22.4,88.2,1002.2,297.3,1.1,1.8,328.6,0.00,20.4,130.0,"22:30:16",1
"21/06/14","22:50",0.0,22.2,88.4,1001.7,317.9,1.3,1.8,317.0,0.00,20.2,130.0,"22:44:16",1
"21/06/14","23:00",0.0,22.1,88.7,1001.7,294.8,1.1,1.4,279.6,0.00,20.2,130.0,"22:56:56",1
"21/06/14","23:10",0.0,22.0,89.0,1001.9,312.0,1.3,1.8,330.0,0.00,20.1,130.0,"23:01:20",1
"21/06/14","23:20",0.0,21.8,89.4,1001.7,313.2,1.5,2.0,312.0,0.00,20.0,130.0,"23:15:44",1
"21/06/14","23:30",0.0,21.6,89.6,1001.9,303.6,1.1,1.7,316.6,0.00,19.9,130.0,"23:23:36",1
"21/06/14","23:40",0.0,21.5,90.0,1001.7,293.2,1.2,1.7,298.5,0.00,19.8,130.0,"23:30:48",1
"21/06/14","23:50",0.0,21.5,90.2,1001.7,301.2,1.3,1.8,306.7,0.00,19.9,130.0,"23:42:56",1
"21/06/14","24:00",0.0,21.4,90.4,1001.7,300.3,1.3,1.6,305.7,0.00,19.8,130.0,"23:50:32",1
